Terug naar catalogus

OPS 6564

VELA 6

ActiefMilitairHEO
NORAD 1459·PAYLOAD·🇺🇸 United States

Gelanceerd Jul 20, 1965 vanaf Cape Canaveral Space Force Station

Loading…

Volgende Passages (komende 24 uur)

TLE

VerouderdSource: Space-Track

Epoch: Aug 20, 2026, 02:15 UTC

1 01459U 65058B   26232.09412380 -.00001187  00000-0  00000-0 0  9993
2 01459  41.6182 357.8346 4847933  96.8287   1.9515  0.21366342  9374

Volg OPS 6564 in realtime met AllMySat

Download on the App Store